Location: Wharf Road Observatory
(44.7802°N, 65.6070°W)
Time: 00:43:49
(UTC-04:00)

AO-85 - Visible Passes

Search period start: 28 January 2023 00:00
Search period end: 07 February 2023 00:00
Orbit: 516 x 753 km, 64.8° (Epoch: 04 January)

Date Brightness Start Highest point End Pass type
(mag) Time Alt. Az. Time Alt. Az. Time Alt. Az.
28 Jan ? 07:12:13 10° NNE 07:13:32 11° NNE 07:14:50 10° NE visible
31 Jan ? 06:37:37 10° N 06:39:43 14° NE 06:41:47 10° ENE visible
01 Feb ? 06:58:52 10° NNW 07:02:08 25° NE 07:05:24 10° E visible
03 Feb ? 06:03:10 10° N 06:05:47 17° NE 06:08:24 10° E visible
04 Feb ? 06:24:35 10° NNW 06:28:07 32° NE 06:31:38 10° ESE visible
05 Feb ? 05:07:57 10° NNE 05:09:20 12° NNE 05:10:52 10° NE visible
05 Feb ? 06:46:20 10° NNW 06:50:14 72° NE 06:54:09 10° SE visible
06 Feb ? 05:29:34 14° N 05:31:47 21° NE 05:34:48 10° E visible
